Location: Unspecified
(33.7552°N, 0.0000°E)
Time: 09:38:25
(UTC+00:00)

DS deb - Visible Passes

Search period start: 04 April 2026 00:00
Search period end: 14 April 2026 00:00
Orbit: 627 x 802 km, 75.7° (Epoch: 28 March)

Date Brightness Start Highest point End Pass type
(mag) Time Alt. Az. Time Alt. Az. Time Alt. Az.
4 Apr ? 04:00:33 10° NNW 04:05:00 74° WSW 04:09:31 10° S visible
5 Apr ? 03:07:52 10° N 03:11:59 35° ENE 03:14:15 21° ESE visible
5 Apr ? 04:49:39 10° WNW 04:52:16 15° W 04:52:58 15° WSW visible
6 Apr ? 02:16:47 10° NE 02:18:39 12° ENE 02:18:51 12° ENE visible
6 Apr ? 03:55:16 10° NNW 03:57:50 31° NW 03:57:50 31° NW visible
7 Apr ? 03:02:13 10° N 03:04:07 24° N 03:04:07 24° N visible
8 Apr ? 02:10:16 10° NNE 02:10:52 12° NNE 02:10:52 12° NNE visible
9 Apr ? 02:56:41 10° NNW 02:56:57 12° NNW 02:56:57 12° NNW visible
